This demonstration page uses our WeatherBlox Daily Observations layout. Learn more.

39.08367, -84.50855

Hourly Observations for August 17, 2019

Temp ( °F °C ) Dew Point ( °F °C ) Humidity (%) Winds ( mph kmh ) Pressure ( in mb ) Visibility ( mi km ) Precip ( " mm )
12:53 am 00:53 Clear 69 20.6 67 19.4 93 93 Calm 29.94 1014 10 16.09344 0 0
1:53 am 01:53 Clear 69 20.6 67 19.4 93 93 Calm 29.94 1014 10 16.09344 0 0
2:53 am 02:53 Clear 67 19.4 67 19.4 100 100 Calm 29.94 1014 10 16.09344 0 0
3:53 am 03:53 Clear 67 19.4 67 19.4 100 100 Calm 29.94 1014 9 14.484096 0 0
4:53 am 04:53 Clear 67 19.4 66 18.9 97 97 Calm 29.94 1014 9 14.484096 0 0
5:35 am 05:35 Clear with Mist and Fog 66 18.9 66 18.9 100 100 Calm 29.91 1013 1.75 2.816352 0 0
5:46 am 05:46 Clear with Mist and Fog 66 18.9 66 18.9 100 100 Calm 29.91 1013 4 6.437376 0 0
5:53 am 05:53 Clear 66 18.9 66 18.9 100 100 Calm 29.91 1013 9 14.484096 0 0
6:53 am 06:53 Partly Cloudy with Patchy Fog 66 18.9 66 18.9 100 100 Calm 29.94 1014 7 11.265408 0 0
7:53 am 07:53 Partly Cloudy with Mist and Fog 68 20 68 20 100 100 SSW 3 6 29.97 1015 6 9.656064 0 0
8:53 am 08:53 Partly Cloudy 71 21.7 70 21.1 96 96 SSW 5 7 29.97 1015 10 16.09344 0 0
9:53 am 09:53 Sunny 76 24.4 70 21.1 82 82 SSW 6 9 29.97 1015 10 16.09344 0 0
10:53 am 10:53 Sunny 80 26.7 70 21.1 71 71 Calm 29.97 1015 10 16.09344 0 0
11:53 am 11:53 Partly Cloudy 83 28.3 70 21.1 65 65 VRB 3 6 30 1016 10 16.09344 0 0
12:53 pm 12:53 Partly Cloudy 84 28.9 68 20 59 59 Calm 30 1016 10 16.09344 0 0
1:53 pm 13:53 Mostly Cloudy 87 30.6 70 21.1 57 57 Calm 29.97 1015 10 16.09344 0 0
2:40 pm 14:40 Mostly Cloudy with Nearby Thunderstorms 87 30.6 69 20.6 55 55 Calm 29.97 1015 10 16.09344 0 0
2:53 pm 14:53 Mostly Cloudy with Nearby Thunderstorms 87 30.6 69 20.6 55 55 VRB 3 6 29.94 1014 10 16.09344 0 0
3:06 pm 15:06 Mostly Cloudy with Thunderstorms 85 29.4 69 20.6 59 59 NW 16 26 29.97 1015 10 16.09344 0 0
3:25 pm 15:25 Mostly Cloudy with Light Thunderstorms 76 24.4 70 21.1 82 82 NE 16 26 29.97 1015 10 16.09344 0.01 0.254
3:33 pm 15:33 Cloudy with Light Thunderstorms 75 23.9 71 21.7 88 88 NE 9 15 29.97 1015 10 16.09344 0.01 0.254
3:53 pm 15:53 Mostly Sunny 77 25 69 20.6 77 77 E 7 11 29.97 1015 10 16.09344 0.01 0.254
4:53 pm 16:53 Mostly Sunny 82 27.8 73 22.8 74 74 ENE 6 9 29.91 1013 10 16.09344 0 0
5:53 pm 17:53 Sunny 84 28.9 73 22.8 70 70 ENE 3 6 29.91 1013 10 16.09344 0 0
6:53 pm 18:53 Sunny 85 29.4 72 22.2 65 65 Calm 29.91 1013 10 16.09344 0 0
7:53 pm 19:53 Sunny 84 28.9 73 22.8 70 70 Calm 29.91 1013 10 16.09344 0 0
8:53 pm 20:53 Clear 75 23.9 74 23.3 96 96 Calm 29.91 1013 10 16.09344 0 0
9:53 pm 21:53 Clear 74 23.3 73 22.8 97 97 Calm 29.91 1013 10 16.09344 0 0
10:53 pm 22:53 Clear 73 22.8 72 22.2 96 96 Calm 29.91 1013 10 16.09344 0 0
11:53 pm 23:53 Clear 72 22.2 71 21.7 97 97 Calm 29.94 1014 10 16.09344 0 0

Powered by AerisWeather